Regional Weather Roundup
Issued by NWS Cleveland, OH

Home | Current Version | Previous Version | Graphics & Text | Print | Product List | Glossary On
Versions: 1 2 3 4 5 6 7 8 9 10 11 12 13 14 15 16 17 18 19 20 21 22 23 24 25 26 27 28 29 30 31 32 33 34 35 36 37 38 39 40 41 42 43 44 45 46 47 48 49 50
000
ASUS41 KCLE 020400
RWRCLE
OHIO REGIONAL WEATHER ROUNDUP
NATIONAL WEATHER SERVICE WILMINGTON, OH
1200 AM EDT TUE SEP 02 2014

NOTE: "FAIR" INDICATES FEW OR NO CLOUDS BELOW 12,000 FEET WITH NO
SIGNIFICANT WEATHER AND/OR OBSTRUCTIONS TO VISIBILITY.

OHZ001>008-015>018-024>027-034-035-043-044-020500-
   NORTHWEST OHIO

CITY           SKY/WX    TMP DP  RH WIND       PRES   REMARKS
DEFIANCE       MOCLDY    75  67  76 VRB3      29.89R
FINDLAY        PTCLDY    74  70  87 SW9       29.90R
TOLEDO EXPRESS MOCLDY    75  69  81 SW9       29.87R
TOLEDO METCALF CLEAR     74  69  85 SW7       29.88R
LIMA           MOCLDY    76  70  82 SW10      29.92R
$$

OHZ009>014-019>023-028>033-038-089-020500-
   NORTHEAST OHIO

CITY           SKY/WX    TMP DP  RH WIND       PRES   REMARKS
CLE-HOPKINS    MOCLDY    76  69  79 S10       29.91S
CLE-LAKEFRONT  PTCLDY    79  69  71 S13G20    29.87S
CUY CO. ARPT   NOT AVBL
LORAIN-ELYRIA  PTCLDY    79  70  74 SW12      29.90S
ASHTABULA      MOCLDY    75  69  81 SW8       29.91R
AKRON-CANTON   PTCLDY    75  69  81 SW10      29.94S
WOOSTER        NOT AVBL
MANSFIELD      MOCLDY    76  70  82 SW14      29.94R
YOUNGSTOWN     MOCLDY    74  70  87 SW9       29.93S
$$

OHZ042-051>053-060>062-070>072-077>081-020500-
  SOUTHWEST OHIO

CITY           SKY/WX    TMP DP  RH WIND       PRES   REMARKS
CINC-COVINGTON CLEAR     75  70  84 S6        29.97S
CINC-LUNKEN    CLEAR     77  70  79 SW9       29.96R
HAMILTON       CLEAR     74  71  91 VRB6      29.96R
DAYTON         NOT AVBL
WRIGHT-PAT AFB CLEAR     76  72  88 SW10      29.95R
DAYTON GENERAL PTCLDY    76  71  85 SW7       29.96R
WILMINGTON     PTCLDY    73  69  87 SW9       29.97R
$$

OHZ036-037-039>041-045>050-054>059-063>069-073>076-082>088-020500-
  CENTRAL AND SOUTHEAST OHIO

CITY           SKY/WX    TMP DP  RH WIND       PRES   REMARKS
COLUMBUS       MOCLDY    77  70  79 S6        29.95R
OSU AIRPORT    PTCLDY    75  70  84 S7        29.95R
BOLTON FIELD   NOT AVBL
RICKENBACK AFB NOT AVBL
NEWARK         MOCLDY    74  70  87 S6        29.95S
MARION         CLEAR     73  70  90 S8        29.93R
LANCASTER      PTCLDY    75  70  84 S6        29.96S
ZANESVILLE     PTCLDY    73  68  84 S7        29.96S
NEW PHILLY     PTCLDY    73  70  90 CALM      29.96R
$$



USA.gov is the U.S. government's official web portal to all federal, state and local government web resources and services.